Showing default

LT-1 O1A, 51284

Orbit data source: Space-Track

LT-1 O1A, 51284 is a payload satellite owned by SAST (CN) in SSO that was launched on Tue, 25 Jan 2022 UTC via a CHANG ZHENG 4C launch vehicle from the Jiuquan Satellite Launch Center, China (JSC). Payload-class satellites include a variety of spacecraft equipped with specific instruments for various scientific and technological missions. These include communications satellites like Starlink; space stations such as the ISS; scientific satellites like the Hubble; Earth observation satellites from companies like Planet Labs, Umbra, and HawkEye 360; GPS; miniature CubeSats for education and research; and military/defense satellites.

Loading next visibility...
Identifier
51284, 2022-007A
Orbit
SSO
Last TLE update
10 hours ago
Origin
Manufacturer
SAST
Mission
Operational Civil Radar Imaging
Bus & Motor
LSAR, AOCS 20N
Mass
3,200 kg wet, ~2,500 kg dry
Launch date (UTC)
2022-01-25 (3 years ago)
Launch vehicle
CHANG ZHENG 4C
Launch site
Jiuquan Satellite Launch Center, China (JSC)
Object type
Payload
Rocket body
Debris
Shape & HBR
Box + 4 Pan, 10 m
Radar Cross Section
14.608 m², Large (>1 m²)

Expand to show TLE details & history

TLE from 10 hours ago
0 LT-1 O1A
1 51284U 22007A   25189.92057484  .00000496  00000-0  59393-4 0  9997
2 51284  97.8102 197.2606 0001568  91.1217 269.0180 14.88410629187411
Epoch: 2025-07-08T22:05Z
TLE epoch observation values (Epoch: 2025-07-08T22:05:37.666Z)
Latitude
0.00005°
Longitude
-61.25498°
Altitude
605.956 km
Speed
7.556 km/s
True Right ascension
13h 09m 02s
True Declination
0° 00' 00"
Sunlit
Object was in daylight at epoch
Visualization orbit readout
Latitude
53.59045°
Longitude
-71.50688°
Altitude
610.818 km
Speed
7.559 km/s
Apparent Right ascension
10h 07m 30s
Apparent Declination
11° 16' 44"
Sunlit
Object is in daylight
Visualization observer readout
Local Sidereal Time
20:10:36
Azimuth
325.594° NNW
Elevation
-32.068°
Doppler factor
1
Orbital elements
Apogee altitude
601.021 km
Perigee altitude
598.832 km
Semi-major axis
6,978.064 km
Eccentricity
0.00016
Inclination
97.8102°
RAAN
197.2606°
Arg. of periapsis
91.1217°
True anomaly
Unknown
Mean anomaly
269.018°
Eccentric anomaly
Unknown
Mean motion
3.72341 °/min
Orbital period
96.69 mins
BSTAR
0.000059393
Loading maneuver chart data...
Loading SW <> Apogee altitude chart data...
Loading historical data...
Loading historical data...
Loading historical data...
Loading historical data...
Loading historical data...
Loading historical data...
Loading historical data...
Other satellites on launch #7 in the year 2022 (2022-01-25 UTC)

LT-1 O1A Visibility forecast

Observer location: undefined°, undefined°

Span
Click to sort rows by Start time (UTC) header in descending order
Start Az.
Max El. time (UTC)
Max El. Az.
Max El.
End time (UTC)
End Az.
7 mins2025-07-09 13:11:00.887Z20.692° NNE2025-07-09 13:15:00.887Z137.527° SSE40.359°2025-07-09 13:18:00.887Z181.177° SSW
6 mins2025-07-10 00:03:00.887Z134.413° SE2025-07-10 00:06:00.887Z62.169° ENE32.916°2025-07-10 00:09:00.887Z6.341° NNE
|